Location: ?????????
(54.7630°N, 39.4991°E)
Time: 22:23:32
(UTC+00:00)

RESURS DK-1 - Pass Details

Date: 14 April 2026
Orbit: 524 x 530 km, 69.9° (Epoch: 13 May)

Event Time Altitude Azimuth Distance (km) Brightness Sun altitude
Exits shadow 20:17:48 22° 263° (W) 1,185 4.1 -24.2°
Maximum altitude 20:19:46 36° 316° (NW) 843 3.7 -24.3°
Drops below altitude 10° 20:23:28 10° 24° (NNE) 1,781 5.5 -24.4°
Sets 20:25:47 0° 34° (NNE) 2,675 6.4 -24.5°
